{"data":{"norad_id":53667,"epoch":"2026-05-25T02:32:49.284672Z","epoch_age_seconds":65614,"freshness":"FRESH","line1":"1 53667U 22105V   26145.10612598 -.00141277  00000+0 -44545-2 0  9994","line2":"2 53667  97.6034  28.1482 0001830  67.1850 292.9585 15.33447881204901","mean_motion":15.33447881,"eccentricity":0.000183,"inclination_deg":97.6034,"raan_deg":28.1482,"arg_perigee_deg":67.185,"mean_anomaly_deg":292.9585,"bstar":-0.0044545,"rev_number":20490,"period_min":93.906028228422,"perigee_km":464.28221075922,"apogee_km":466.78699456579,"semimajor_km":6843.6716026625,"source":"CELESTRAK","updated_at":"2026-05-25T13:38:17.487953Z"}}